Find OneWeb SL0614

NORAD ID: 55156 Int'l Des: 2023-004 Owner: ONEWEBN Country: UK Constellation: oneweb operational
LEOCIRCULARPOLARONEWEB_TYPE

リアルタイム位置

3D地球を読み込み中...

OneWeb SL0614について

説明を読み込み中...

次回通過

Passes for default location (London). Set your location on the main map for personalized predictions.

高度履歴

Loading altitude history...

軌道要素

1 55156U 23004S 26127.26010716 .00000536 00000-0 14770-2 0 9997
2 55156 87.8919 29.2170 0001867 87.5862 272.5480 13.11417674160476
Epoch: May 7, 2026 • Age: 13 hours

現在のステータス

高度 1219.4 km
速度 7.25 km/s
衛星直下点 14.14°N, 122.98°W
打ち上げ日 Jan 10, 2023
運用期間 3.3 years
タイプ internet

技術仕様

分類 Payload
質量 148.00 kg
乾燥質量 140.00 kg
総質量 148.00 kg
長さ 1.30 m
直径 1.00 m
スパン 5.00 m
形状 Trapezoid+2 pan
製造者 ONEWUS
バスタイプ ARROW
フェーズステータス In Orbit
所有者/国 ONEWEBN/UK

Most Searched